161  
ASUS45 KREV 161210  
RWRNV  
NEVADA REGIONAL WEATHER ROUNDUP  
NATIONAL WEATHER SERVICE RENO NV  
500 AM PDT TUE JUL 16 2019  
 
NOTE: "FAIR" INDICATES FEW OR NO CLOUDS BELOW 12,000 FEET WITH NO  
SIGNIFICANT WEATHER AND/OR S TO VISIBILITY
.  
 
NVZ001-003-004-161300-  
WESTERN NEVADA  
 
CITY SKY/WX TMP DP RH WIND PRES REMARKS
 
RENO PTCLDY 62 39 42 CALM 30.05S  
6HR MIN TEMP: 62; 6HR MAX TEMP: 75;  
 
CARSON CITY FAIR 55 39 54 CALM 30.06R  
MINDEN FAIR 43 36 75 CALM 30.09R  
FALLON CLEAR 55 39 54 S5 30.00S  
6HR MIN TEMP: 54; 6HR MAX TEMP: 75;  
 
LOVELOCK CLEAR 57 40 52 E8 29.99S  
6HR MIN TEMP: 57; 6HR MAX TEMP: 79;  
 
HAWTHORNE CLEAR 66 34 30 CALM 30.03R  

 
 
NVZ002-CAZ072-073-161300-  
NORTHERN AND CENTRAL SIERRA  
 
CITY SKY/WX TMP DP RH WIND PRES REMARKS
 
S. LAKE TAHOE CLEAR 41 36 82 CALM 30.15S  
6HR MIN TEMP: 41; 6HR MAX TEMP: 57;  
 
TRUCKEE CLEAR 37 37 100 CALM 30.16S  
SQUAW VLY 8000 N/A 54 27 35 SW9 N/A  
BLUE CANYON CLEAR 63 41 44 CALM 30.10F  
MAMMOTH LAKES FAIR 39 32 73 N5 30.20S  
6HR MIN TEMP: 39; 6HR MAX TEMP: 56;  
 

 
 
NVZ030-031-036-161300-  
NORTHERN NEVADA  
 
CITY SKY/WX TMP DP RH WIND PRES REMARKS
 
ELKO CLEAR 52 36 54 CALM 30.05R  
6HR MIN TEMP: 51; 6HR MAX TEMP: 65;  
 
WINNEMUCCA CLEAR 53 42 66 CALM 30.02R  
6HR MIN TEMP: 53; 6HR MAX TEMP: 74;  
 
BATTLE MOUNTAI N/A 54 32 43 CALM 30.02S  
WENDOVER CLEAR 70 42 36 NW5 29.97S  

 
 
NVZ035-037-161300-  
CENTRAL NEVADA  
 
CITY SKY/WX TMP DP RH WIND PRES REMARKS
 
ELY CLEAR 43 24 47 S13 30.12S  
6HR MIN TEMP: 43; 6HR MAX TEMP: 62;  
 
EUREKA N/A 50 26 39 S9 30.09S  
6HR MIN TEMP: 50; 6HR MAX TEMP: 61;  
 

 
 
NVZ013-014-161300-  
SOUTH CENTRAL NEVADA  
 
CITY SKY/WX TMP DP RH WIND PRES REMARKS
 
TONOPAH CLEAR 61 20 20 N14 30.06S  
6HR MIN TEMP: 59; 6HR MAX TEMP: 73;  
 

 
 
NVZ017-020-022-161300-  
SOUTHERN NEVADA  
 
CITY SKY/WX TMP DP RH WIND PRES REMARKS
 
LAS VEGAS CLEAR 86 21 9 S7 29.79R  
6HR MIN TEMP: 86; 6HR MAX TEMP: 95;  
 
N. LAS VEGAS CLEAR 78 32 18 N5 29.80R  
6HR MIN TEMP: 78; 6HR MAX TEMP: 94;  
 
NELLIS AFB CLEAR 75 23 14 N3 29.78  
6HR MIN TEMP: 75; 6HR MAX TEMP: 94;  
 
HENDERSON CLEAR 83 22 10 SW15 29.84R  
6HR MIN TEMP: 82; 6HR MAX TEMP: 91;  
 
MERCURY CLEAR 74 22 14 N7 29.88R  
6HR MIN TEMP: 73; 6HR MAX TEMP: 92;  
 

 
 
 
CLICK HERE TO GO TO PREVIOUS BULLETINS.

The Nexlab NV Page Main Text Page